This is the latest recevied weather packets stored in our database for station/object DB0TGO-14. If no packets are shown the sender has not sent any weather packets the latest 1 day(s).
| Time | Temp. | Humidity | Pressure | Rain* | Wind** | Luminosity | Snow |
|---|---|---|---|---|---|---|---|
| 1777986245 | 21.11° C | 65% | 1009.1 hPa | 0 mm | 1.34 m/s, 315° | - | - |
| 1777986135 | 21.67° C | 65% | 1009.1 hPa | 0 mm | 1.34 m/s, 270° | - | - |
| 1777986030 | 21.67° C | 63% | 1009.2 hPa | 0 mm | 0.89 m/s, 292° | - | - |
| 1777985928 | 21.67° C | 63% | 1009.1 hPa | 0 mm | 0.89 m/s, 292° | - | - |
| 1777985818 | 21.67° C | 63% | 1009.2 hPa | 0 mm | 0.89 m/s, 270° | - | - |
| 1777985732 | 21.11° C | 62% | 1009.1 hPa | 0 mm | 0.89 m/s, 270° | - | - |
| 1777985700 | 21.11° C | 62% | 1009.2 hPa | 0 mm | 0.89 m/s, 292° | - | - |
| 1777985585 | 20.56° C | 60% | 1009.2 hPa | 0 mm | 0.89 m/s, 270° | - | - |
| 1777985466 | 20.56° C | 60% | 1009.3 hPa | 0 mm | 0.89 m/s, 112° | - | - |
| 1777985355 | 20° C | 62% | 1009.2 hPa | 0 mm | 1.34 m/s, 292° | - | - |
| 1777985245 | 20° C | 63% | 1009.3 hPa | 0 mm | 1.34 m/s, 292° | - | - |
| 1777985140 | 19.44° C | 65% | 1009.2 hPa | 0 mm | 1.34 m/s, 292° | - | - |
| 1777985045 | 19.44° C | 67% | 1009.3 hPa | 0 mm | 1.34 m/s, 292° | - | - |
| 1777984945 | 19.44° C | 68% | 1009.3 hPa | 0 mm | 1.34 m/s, 315° | - | - |
| 1777984835 | 19.44° C | 68% | 1009.4 hPa | 0 mm | 1.34 m/s, 315° | - | - |
| 1777984738 | 19.44° C | 68% | 1009.4 hPa | 0 mm | 1.34 m/s, 292° | - | - |
| 1777984681 | 19.44° C | 70% | 1009.4 hPa | 0 mm | 1.79 m/s, 292° | - | - |
| 1777984625 | 19.44° C | 68% | 1009.4 hPa | 0 mm | 1.79 m/s, 292° | - | - |
| 1777984515 | 19.44° C | 70% | 1009.5 hPa | 0 mm | 1.79 m/s, 270° | - | - |
| 1777984405 | 19.44° C | 70% | 1009.5 hPa | 0 mm | 1.79 m/s, 270° | - | - |
| 1777984295 | 20° C | 70% | 1009.4 hPa | 0 mm | 1.79 m/s, 292° | - | - |
| 1777984175 | 20° C | 70% | 1009.4 hPa | 0 mm | 1.34 m/s, 270° | - | - |
| 1777984065 | 20° C | 69% | 1009.5 hPa | 0 mm | 0.89 m/s, 315° | - | - |
| 1777983965 | 20° C | 70% | 1009.5 hPa | 0 mm | 0.89 m/s, 292° | - | - |
| 1777983865 | 20° C | 70% | 1009.5 hPa | 0 mm | 0.89 m/s, 248° | - | - |
* Rain latest hour (hover to see other rain measurements)
** Current wind speed in m/s (hover to see current wind gust speed)